Weather in Lysogorskaya

Russia / Stavropol Krai     44°06′17″N   43°16′28″E
temp.,
°C
wind,
m/s
gust,
m/s
humid.,
%
clouds,
%
prec.,
mm/h
press.,
hPa
HPBL,
m
19 january, wed
wed1900:00−2wnw3692100 0.0 1015182
03:00−2sw2287100 0.0 101640
06:00−2w1296100 0.3 1017148
09:00−3nw5790100 1.3 1020471
12:00−2nw4573100 0.3 1020881
15:00−2nnw3368100 0.3 1019753
18:00−3ne1283100 0.0 1020222
21:00−4e1289100 0.1 1021262
20 january, thu
thu2000:00−4se3492100 0.3 1021389
03:00−4s2485100 0.3 1021306
06:00−5sw127699 0.0 102198
09:00−4nw238690 0.0 1022388
12:00−3nnw2275100 0.1 1022624
15:00−3n2269100 0.1 1021691
18:00−4nnw2278100 0.1 1023475
21:00−4w118753 0.3 1024183
21 january, fri
fri2100:00−6ssw3585100 0.0 1024134
03:00−4s3563100 0.0 1023150
06:00−4s2366100 0.0 102275
09:00−3sse24615 0.0 1021108
12:00+1ese35450 0.0 1021288
15:00+1se59595 0.0 1020519
18:00−1sse411755 0.0 1021268
21:00−2sse37783 0.0 1020149
22 january, sat
sat2200:00−2s3106636 0.0 1018200
03:00−2sse3770100 0.0 1017157
06:00−2sse2575100 0.0 1015118
09:00−1sse1171100 0.0 101633
12:00+1ne1161100 0.0 1016111
15:00+1ne2165100 0.0 1016160
18:00−1ssw0076100 0.0 101810
21:00−1wnw2276100 0.0 101823
23 january, sun
sun2300:00−2wnw228281 0.0 101928
03:00−2w1182100 0.0 101911
06:00−2ese1185100 0.0 101811
09:00−2ese1291100 0.0 1019186
12:000ese2386100 0.0 1018359
15:000ese3585100 0.0 1018442
18:00−1ese4789100 0.0 1018452
21:00−1se368972 0.0 1017364